Location: Bakersfield
(35.3730°N, 119.0180°W)
Time: 08:50:16
(UTC-07:00)

Daily predictions for brighter satellites

Satellite Brightness Start Highest point End
(mag) Time Altitude Azimuth Time Altitude Azimuth Time Altitude Azimuth
Meteor 1-24 Rocket 3.8 20:31:31 10° S 20:37:12 90° W 20:42:44 10° N
Cosmos 1697 Rocket 3.6 20:33:36 10° NNW 20:39:02 49° WSW 20:44:25 10° S
Cosmos 1408 Rocket 3.6 20:35:47 10° S 20:40:12 87° E 20:44:36 10° N
Cosmos 540 Rocket 3.5 20:37:28 10° NNW 20:42:39 71° ENE 20:47:46 10° SSE
FENGYUN 3A 3.7 20:37:55 10° SSE 20:43:21 88° ENE 20:48:48 10° NNW
Cosmos 332 Rocket 3.9 20:43:34 10° N 20:48:22 63° ENE 20:53:10 10° SSE
USA 229 DEB 3.9 20:41:49 10° S 20:48:25 49° ESE 20:55:02 10° NE
USA 229 3.9 20:41:57 10° S 20:48:30 48° ESE 20:55:08 10° NE
YAOGAN 11 4.2 20:44:33 10° SSE 20:48:47 63° ENE 20:53:06 10° N
DELTA 2 R/B(2) 2.6 20:50:33 10° WSW 20:52:08 60° SSE 20:53:55 10° ENE
Meteor 2-1 Rocket 4.4 20:47:38 10° N 20:53:16 79° W 20:58:47 10° S
Cosmos 1437 Rocket 4.4 20:50:41 10° NNE 20:53:23 18° ENE 20:56:06 10° ESE
GPS 2-04 Rocket1 3.0 20:49:56 10° W 20:54:17 66° SSW 20:58:33 10° ESE
CZ-2D R/B 4.3 20:52:12 10° S 20:55:57 48° W 20:59:43 10° NNW
H-2A R/B 3.3 20:52:19 10° S 20:56:09 62° W 20:59:57 10° NNW
Cosmos 968 Rocket 3.4 20:52:15 10° S 20:57:22 73° ESE 21:02:35 10° NNE
Cosmos 1076 Rocket 4.3 20:53:41 10° SSW 20:57:51 55° W 21:02:04 10° N
deb Kosmos-1763 4.4 20:54:25 10° SSW 20:58:17 76° WNW 21:02:12 10° NNE
Cosmos 2026 Rocket 4.3 20:59:28 10° SSW 21:05:30 69° W 21:11:39 10° N
CZ-4 DEB 3.6 21:03:58 10° S 21:07:05 49° W 21:10:13 10° NNW
Cosmos 1378 4.4 21:03:49 10° SSW 21:07:25 45° W 21:11:02 10° N
Meteor 1-21 Rocket 4.2 21:03:28 10° S 21:08:56 63° E 21:14:23 10° NNE
H-2A R/B 2.3 21:08:14 10° SSE 21:12:41 62° ENE 21:17:10 10° N
Envisat 3.3 21:10:50 11° SSE 21:15:27 52° ENE 21:20:23 10° N
Cosmos 2292 4.2 21:16:55 10° N 21:19:54 62° E 21:22:20 16° SSE
Cosmos 1328 Rocket 3.5 21:15:50 10° N 21:20:18 80° E 21:24:35 11° S
DELTA 2 R/B (1) 4.1 21:15:04 10° WNW 21:20:32 57° N 21:25:59 10° E
Meteor 2-20 4.5 21:15:47 10° S 21:21:49 64° E 21:27:53 10° NNE
YAOGAN 6 4.2 21:20:33 16° ESE 21:22:10 21° ENE 21:25:00 10° NNE
ERS-1 Rocket 3.2 21:19:48 10° S 21:24:48 71° WSW 21:29:51 10° NNW
Cosmos 371 Rocket 3.3 21:20:03 10° NNW 21:24:53 84° WSW 21:29:06 13° SSE
Cosmos 2228 Rocket 3.5 21:21:24 10° NNW 21:25:50 66° W 21:30:18 10° S
USA 186 4.2 21:25:30 10° WSW 21:26:22 11° W 21:27:14 10° WNW
Cosmos 1437 3.9 21:25:22 22° ESE 21:26:23 26° E 21:29:10 10° NE
SPOT 5 3.0 21:25:09 18° SE 21:28:21 52° ENE 21:32:54 10° N
Cosmos 405 3.9 21:25:03 10° NNE 21:28:21 33° ENE 21:29:54 23° ESE
ALOS 4.3 21:25:02 10° SSW 21:28:55 26° W 21:32:51 10° NW
S3M 4.0 21:24:09 10° N 21:30:16 82° W 21:36:24 10° S
Cosmos 1743 Rocket 4.4 21:26:02 10° SSW 21:30:24 54° W 21:34:47 10° N
Cosmos 1777 Rocket 4.0 21:26:17 10° SSW 21:31:33 90° SE 21:36:50 10° NNE
CZ-2C R/B 1.9 21:33:24 18° SW 21:34:02 23° W 21:35:30 10° NW
Cosmos 1500 Rocket 3.8 21:32:48 10° SSW 21:37:07 68° W 21:41:30 10° N
MetOp-A 4.3 21:36:13 20° SE 21:39:50 57° ENE 21:45:04 10° N
ARGOS 4.1 21:37:20 20° ESE 21:40:13 33° ENE 21:44:58 10° N
H-2A R/B 3.9 21:41:19 14° E 21:43:34 18° ENE 21:47:02 10° NNE
PSLV R/B 3.1 21:42:35 34° SSE 21:43:44 71° ENE 21:46:48 10° N
Cosmos 1441 Rocket 4.3 21:40:37 10° SSW 21:44:15 43° W 21:47:52 10° N
Cosmos 2219 3.4 21:43:34 12° S 21:48:45 49° ESE 21:54:16 10° NNE
UNK 4.5 21:44:14 10° NNE 21:50:26 81° ESE 21:56:44 10° SSW
ATLAS CENTAUR R/B 3.0 21:46:49 10° NW 21:50:36 28° WSW 21:53:26 14° SSW
Delta 2 Rocket 2.6 21:50:35 10° WSW 21:54:04 70° SSE 21:55:06 40° E
SPOT 1/Viking Rocket 3.8 21:52:44 28° SE 21:55:16 54° ENE 22:00:17 10° N
NOSS 3-1 (C) 3.5 21:50:58 10° S 21:56:26 47° ESE 22:02:22 10° NE
Cosmos 1726 3.8 21:54:17 10° NNE 21:57:06 20° ENE 21:57:09 20° ENE
AVUM R/B 4.5 21:55:41 11° SW 21:57:36 29° WNW 21:59:46 10° N
Cosmos 2322 3.9 21:54:29 10° NNW 22:00:09 61° ENE 22:02:51 31° SE
FALCON 9 R/B 4.4 21:24:12 10° WSW 22:01:06 82° S 22:09:08 10° E
Cosmos 1680 Rocket 3.6 21:57:50 10° N 22:03:02 60° ENE 22:05:13 34° SE
Cosmos 1939 Rocket 4.4 22:00:20 12° SSW 22:03:29 30° W 22:07:00 10° NW
USA 245 2.9 22:03:51 47° NE 22:03:51 47° NE 22:06:02 10° N
Cosmos 883 Rocket 4.4 21:58:12 10° N 22:04:26 88° W 22:08:28 23° S
Cosmos 2322 Rocket 3.3 22:00:44 10° NW 22:05:53 38° WSW 22:10:01 15° SSW
Cosmos 1908 3.8 22:02:18 10° NNW 22:06:07 56° W 22:08:02 27° SSW
Cosmos 923 Rocket 3.9 22:01:08 10° NNW 22:06:22 87° ENE 22:08:44 33° SSE
CZ-3A R/B 3.9 21:38:40 10° WSW 22:06:56 42° SSW 22:09:38 30° SE
Cosmos 304 Rocket 3.7 22:04:57 10° NNW 22:09:46 73° ENE 22:11:25 40° SSE
Cosmos 2150 Rocket 4.4 22:11:46 36° SE 22:13:10 44° ESE 22:18:19 10° NNE
Cosmos 1898 Rocket 3.8 22:13:30 38° SE 22:14:27 42° ESE 22:19:20 10° NNE
Landsat 7 4.5 22:13:55 34° ESE 22:15:00 39° ENE 22:19:26 10° N
SL-16 R/B 3.5 22:10:11 10° NW 22:15:14 34° WSW 22:19:09 15° SSW
CZ-4B R/B 3.7 22:09:58 10° N 22:15:15 75° WNW 22:19:28 16° SSW
NOAA 11 4.2 22:13:06 36° SE 22:15:18 67° ENE 22:20:42 10° N
Cosmos 2360 Rocket 2.1 22:11:14 10° NNW 22:16:55 87° ENE 22:19:14 38° SSE
Meteor 1-11 4.2 22:15:56 31° S 22:18:46 70° E 22:24:29 10° NNE
Cosmos 1633 Rocket 3.3 22:19:20 47° ESE 22:19:42 49° E 22:23:56 10° NNE
Sich 1 3.2 22:19:29 49° ESE 22:20:01 53° E 22:24:20 10° NNE
Cosmos 2315 Rocket 3.9 22:17:52 10° N 22:24:07 87° W 22:27:09 32° S
Cosmos 2151 4.1 22:23:19 16° SW 22:26:15 40° W 22:30:14 10° N
Terra 2.4 22:30:16 38° E 22:30:52 40° ENE 22:35:18 10° N
Cosmos 1626 4.4 22:34:25 15° NE 22:34:25 15° NE 22:35:28 10° NE
Cosmos 1805 Rocket 3.9 22:31:18 35° SSW 22:33:01 64° W 22:37:28 10° N
Meteor 1-4 Rocket 3.8 22:30:05 10° N 22:32:55 32° NE 22:32:55 32° NE
Cosmos 1300 2.5 22:31:24 10° N 22:35:15 89° E 22:35:15 89° E
Cosmos 2227 Rocket 3.1 22:39:31 31° E 22:39:31 31° E 22:43:44 10° NE
CZ-4C R/B 3.4 22:43:31 62° N 22:43:31 62° N 22:46:29 10° NNW
OAO 2 Rocket 4.3 22:40:28 10° SW 22:43:37 33° SSW 22:43:37 33° SSW
USA 32 3.9 22:41:01 10° N 22:46:17 70° E 22:47:01 61° SE
Cosmos 2333 Rocket 3.5 22:43:02 10° N 22:47:54 28° ENE 22:49:11 26° E
SWAS 4.4 22:43:53 10° NNW 22:48:11 72° WSW 22:48:17 71° WSW
Spot 2 4.4 22:44:37 10° NNE 22:49:41 61° ESE 22:49:48 61° ESE
SL-16 R/B 4.5 22:51:22 10° NNE 22:53:27 12° NE 22:55:31 10° ENE
Cosmos 1707 Rocket 4.0 22:50:17 10° NNW 22:54:31 53° W 22:54:58 51° WSW
Cosmos 1666 Rocket 4.3 22:54:06 40° WSW 22:55:06 48° W 22:59:23 10° N
Nadezhda 1 Rocket 4.1 22:50:12 10° N 22:56:09 55° E 22:57:05 50° ESE
Cosmos 1455 3.9 22:54:48 10° NNE 22:56:59 25° NE 22:56:59 25° NE
NOSS 3-1 (A) 3.4 22:54:37 21° SW 22:58:41 77° WNW 23:05:06 10° NNE
COSMOS 2428 2.6 22:54:00 10° NNW 22:59:43 86° WSW 23:00:36 65° SSE
Cosmos 1745 Rocket 3.9 23:01:50 52° S 23:03:30 90° W 23:09:44 10° N
Cosmos 2297 Rocket 3.1 23:07:31 34° ENE 23:07:31 34° ENE 23:11:31 10° NE
DELTA 2 R/B (1) 3.4 23:01:38 10° WNW 23:07:12 80° SSW 23:07:27 78° SSE
Cosmos 1470 Rocket 3.8 23:09:03 63° NNE 23:09:03 63° NNE 23:12:42 10° N
Cosmos 1933 Rocket 3.8 23:10:28 67° NNE 23:10:28 67° NNE 23:14:21 10° N
Cosmos 1709 Rocket 4.4 23:12:07 44° E 23:12:10 44° E 23:17:55 10° NNE
Cosmos 220 Rocket 4.4 23:15:38 63° NNW 23:15:38 63° NNW 23:19:37 10° NNE
Cosmos 1703 4.4 23:18:15 41° WNW 23:18:15 41° WNW 23:21:28 10° N
Cosmos 1937 Rocket 3.7 23:16:58 55° WSW 23:17:52 65° WNW 23:23:04 10° N
IGS 5A 4.1 23:20:25 51° WNW 23:20:25 51° WNW 23:23:51 10° NNW
Cosmos 2219 Rocket 2.1 23:14:20 10° NNW 23:19:54 68° ENE 23:20:07 67° E
ATLAS 2AS CENTAUR R/B 2.9 23:20:01 57° SSE 23:21:05 62° ESE 23:28:55 10° NE
H-2A R/B 2.5 23:21:57 51° WSW 23:22:27 53° W 23:27:44 10° NNW
COSMOS 2455 4.5 23:18:49 10° N 23:23:30 23° NE 23:25:14 20° ENE
Cosmos 1271 Rocket 4.2 23:22:39 10° NNW 23:25:18 35° NW 23:25:18 35° NW
Cosmos 1726 4.4 23:29:33 10° NW 23:31:50 19° WNW 23:31:50 19° WNW
Cosmos 990 Rocket 4.1 23:33:28 65° WNW 23:33:33 65° WNW 23:38:40 10° N
Cosmos 1980 3.8 23:28:04 10° NNW 23:33:40 63° ENE 23:33:40 63° ENE
Cosmos 1386 Rocket 4.5 23:33:46 60° SW 23:34:39 68° W 23:40:38 10° N
Cosmos 2181 Rocket 4.3 23:29:11 10° N 23:35:23 51° E 23:35:40 50° E
NOSS 0 Rocket 3.8 23:39:04 10° NNW 23:45:15 85° WSW 23:45:22 84° SW
Cosmos 2082 3.8 23:45:28 65° W 23:45:54 67° WNW 23:51:37 10° NNE
Cosmos 2237 Rocket 2.2 23:41:25 10° NNW 23:46:53 74° NE 23:46:53 74° NE
ATLAS 3B R/B 3.7 23:41:08 10° NNW 23:47:28 35° NE 23:49:26 30° E
CZ-4B R/B 4.4 23:51:29 12° NNE 23:51:29 12° NNE 23:52:01 10° NNE
